Regional Weather Roundup
Issued by NWS Green Bay, WI

Home | Current Version | Previous Version | Graphics & Text | Print | Product List | Glossary Off
Versions: 1 2 3 4 5 6 7 8 9 10 11 12 13 14 15 16 17 18 19 20 21 22 23 24 25 26 27 28 29 30 31 32 33 34 35 36 37 38 39 40 41 42 43 44 45 46 47 48 49 50

000
ASUS43 KGRB 270300
RWRGRB

NORTH-CENTRAL AND NORTHEAST WISCONSIN REGIONAL WEATHER ROUNDUP
NATIONAL WEATHER SERVICE GREEN BAY WI
1000 PM CDT SUN MAR 26 2017

WIZ005-009-010>012-018-019-270400-
NORTH CENTRAL WISCONSIN

CITY           SKY/WX    TMP DP  RH WIND       PRES   REMARKS
IRONWOOD       FOG      N/A N/A N/A NW3       29.93S VSB 1
MANITOWISH WTR NOT AVBL
ARBOR VITAE    NOT AVBL
EAGLE RIVER    NOT AVBL
LAND O LAKES   NOT AVBL
RHINELANDER    CLOUDY    38  37  97 VRB3      29.87F
PHILLIPS       NOT AVBL
ANTIGO         NOT AVBL
TOMAHAWK       NOT AVBL
MERRILL        NOT AVBL
$$

WIZ013-073-270400-
NORTHEAST WISCONSIN

CITY           SKY/WX    TMP DP  RH WIND       PRES   REMARKS
IRON MOUNTAIN  LGT RAIN  36  33  89 CALM      29.86S FOG
MARINETTE        N/A    N/A N/A N/A MISG        N/A
$$

WIZ017-030-035>037-045-270400-
CENTRAL WISCONSIN

CITY           SKY/WX    TMP DP  RH WIND       PRES   REMARKS
MEDFORD        NOT AVBL
WAUSAU         LGT RAIN  38  38 100 NW3       29.86F FOG
MOSINEE        DRIZZLE   37  37 100 VRB3      29.88F
MARSHFIELD     CLOUDY    38  37  97 CALM      29.87S FOG
WISC RAPIDS    LGT RAIN  39  39 100 CALM      29.89F FOG
STEVENS POINT  NOT AVBL
WAUPACA        NOT AVBL
SHAWANO        NOT AVBL
CLINTONVILLE   NOT AVBL
WAUTOMA        LGT RAIN  39  38  96 CALM      29.89S
$$

WIZ038-039-048-051-270400-
FOX VALLEY

CITY           SKY/WX    TMP DP  RH WIND       PRES   REMARKS
NWS GREEN BAY  FOG       37  37 100 NE3       29.88F VSB 1
APPLETON       DRIZZLE   37  37 100 N6        29.87S
OSHKOSH        CLOUDY    39  37  92 N8        29.87S
FOND DU LAC    LGT RAIN  39  37  92 N5        29.87F FOG
$$

WIZ022-050-052-270400-
EAST CENTRAL WISCONSIN

CITY           SKY/WX    TMP DP  RH WIND       PRES   REMARKS
EPHRAIM        NOT AVBL
WASHINGTON ISL NOT AVBL
STURGEON BAY   MIX PCPN  34  33  96 N10       29.88S FOG
MANITOWOC      NOT AVBL
SHEBOYGAN      LGT RAIN  41  39  93 N5        29.86S
$$

LMZ563-521-522-541>543-270400-
LAKESHORE

STATION/POSITION TIME  TEMP    WIND        PRES    VSBY  WAVE
                       AIR SEA DIR/SP/G                  HT/PER
                 (UTC) (F)     (DEG/KT/KT) (MB)    (MI)  (FT/S)
SHEBOYGAN LKSHOR 0200   40     310/  5/  5 1011.6R
KEWAUNEE LKSHORE 0230   36     320/  6/  9 1011.1S
NORTHPORT PIER   0240   33     330/  9/ 10 1011.9S
CHAMBERS ISLAND  0240   33     350/  6/  7 1011.9S
MENOMINEE LKSHOR 0230   34     310/  6/  7 1011.2S
$$



USA.gov is the U.S. government's official web portal to all federal, state and local government web resources and services.